Regional Weather Roundup
Issued by NWS

Home | Current Version | Previous Version | Text Only | Print | Product List | Glossary On
Versions: 1 2 3 4 5 6 7 8 9 10 11 12 13 14 15 16 17 18 19 20 21 22 23 24 25 26 27 28 29 30 31 32 33 34 35 36 37 38 39 40 41 42 43 44 45 46 47 48 49 50
000
ASUS43 KMKX 211410
RWRWI

WISCONSIN REGIONAL WEATHER ROUNDUP
NATIONAL WEATHER SERVICE MILWAUKEE/SULLIVAN WI
900 AM CDT SAT APR 21 2018

NOTE: "FAIR" INDICATES FEW OR NO CLOUDS BELOW 12,000 FEET WITH NO
SIGNIFICANT WEATHER AND/OR OBSTRUCTIONS TO VISIBILITY.

WIZ001-002-006>008-014>016-023>028-211500-
NORTHWEST WISCONSIN

CITY           SKY/WX    TMP DP  RH WIND       PRES   REMARKS
SUPERIOR ARPT  FAIR      43  26  50 SW5       30.44S
ASHLAND        FAIR      45  21  38 W6        30.44R
HAYWARD        FAIR      41  23  48 CALM      30.44S
SIREN          FAIR      42  24  49 CALM      30.44S
CUMBERLAND     FAIR      34  21  60 CALM      30.43S
RICE LAKE      FAIR      36  24  61 CALM      30.45F
CHETEK         FAIR      38  23  53 CALM      30.44F
LADYSMITH      FAIR      42  20  41 CALM      30.45S
EAU CLAIRE     FAIR      39  27  62 CALM      30.43F
MENOMONIE      FAIR      38  27  64 CALM      30.44F
NEW RICHMOND   FAIR      38  27  66 CALM      30.44S
OSCEOLA        FAIR      39  28  64 CALM      30.46F
$$

WIZ003>005-009-010-017-018-211500-
NORTH CENTRAL WISCONSIN

CITY           SKY/WX    TMP DP  RH WIND       PRES   REMARKS
MANITOWISH WTR FAIR      40  19  42 CALM      30.42S
ARBOR VITAE    FAIR      42  19  38 CALM      30.42S
WOODRUFF       FAIR      42  19  38 CALM      30.42S
RHINELANDER    FAIR      44  20  38 CALM      30.43S
EAGLE RIVER    FAIR      42  17  36 CALM      30.41S
LAND O LAKES   FAIR      45  17  33 CALM      30.42F
PHILLIPS       FAIR      40  21  47 CALM      30.42F
TOMAHAWK       FAIR      43  15  31 CALM      30.43S
MEDFORD        FAIR      40  24  54 CALM      30.42S
MERRILL          N/A     36  23  59 CALM      30.44F
$$

WIZ029-030-035-036-043>047-211500-
CENTRAL WISCONSIN

CITY           SKY/WX    TMP DP  RH WIND       PRES   REMARKS
WAUSAU         FAIR      36  26  67 CALM      30.42S
MOSINEE        MOSUNNY   39  19  45 CALM      30.44R
MARSHFIELD     FAIR      41  23  48 CALM      30.42S
STEVENS POINT  FAIR      38  23  54 N5        30.45R WCI  35
WAUPACA        FAIR      41  26  54 CALM      30.45F
WAUTOMA        FAIR      38  25  59 CALM      30.45F
WISC RAPIDS    FAIR      42  21  43 CALM      30.45S
CAMP DOUGLAS   CLOUDY    36  28  75 CALM      30.44S
$$

WIZ011>013-019>022-031-037>040-048>050-211500-
NORTHEAST WISCONSIN

CITY           SKY/WX    TMP DP  RH WIND       PRES   REMARKS
ANTIGO         FAIR      37  28  71 CALM      30.43S
SHAWANO        FAIR      42  23  46 SW3       30.45S
OCONTO         FAIR      42  23  47 W3        30.44S
STURGEON BAY   FAIR      46  22  38 W7        30.45S
GREEN BAY      FAIR      39  25  57 SW5       30.46R
MANITOWOC      FAIR      41  29  62 CALM      30.47S
APPLETON       PTSUNNY   39  21  48 CALM      30.44S
CLINTONVILLE   FAIR      37  21  52 CALM      30.45S
OSHKOSH        FAIR      37  28  70 S3        30.45S
$$

WIZ032>034-041-042-053>061-211500-
SOUTHWEST WISCONSIN

CITY           SKY/WX    TMP DP  RH WIND       PRES   REMARKS
LA CROSSE      CLOUDY    41  31  67 SE5       30.44F
SPARTA         FAIR      37  28  68 CALM      30.45S
VIROQUA        FAIR      41  29  61 S3        30.43S
BOSCOBEL       CLOUDY    41  33  73 CALM      30.45F
PRAIRIE DU CHI CLOUDY    41  33  73 CALM      30.45R
PLATTEVILLE    CLOUDY    44  31  60 E3        30.45S
$$

WIZ056-057-062-063-064-067-068-211500-
SOUTH CENTRAL WISCONSIN

CITY           SKY/WX    TMP DP  RH WIND       PRES   REMARKS
REEDSBURG      CLOUDY    35  29  81 CALM      30.45R
BARABOO/DELLS  PTSUNNY   36  23  58 CALM      30.45R
LONE ROCK      CLOUDY    39  32  76 E6        30.46R WCI  35
MINERAL POINT  FAIR      45  21  39 E5        30.44F
MADISON        CLOUDY    42  31  64 CALM      30.46R
MIDDLETON      CLOUDY    41  32  70 CALM      30.46R
WATERTOWN      FAIR      38  28  65 CALM      30.46R
MONROE         CLOUDY    43  23  45 CALM      30.45R
JANESVILLE     CLOUDY    45  28  53 CALM      30.46S
$$

WIZ051-052-058>065-066-070>072-211500-
SOUTHEAST WISCONSIN

CITY           SKY/WX    TMP DP  RH WIND       PRES   REMARKS
MILWAUKEE      CLOUDY    44  22  41 CALM      30.47S
WAUKESHA       PTSUNNY   37  25  60 NE3       30.47S
MILWAUKEE/TIMM SUNNY     39  27  60 CALM      30.47S
RACINE         FAIR      44  26  49 CALM      30.47F
BURLINGTON     FAIR      39  29  67 CALM      30.45S
KENOSHA        FAIR      42  23  46 NE3       30.46S
FOND DU LAC    FAIR      41  19  41 CALM      30.46R
SHEBOYGAN      FAIR      41  29  62 SW5       30.46S
WEST BEND      FAIR      39  28  65 CALM      30.46S
JUNEAU         FAIR      39  26  60 CALM      30.46S
$$

LSZ147-162-211500-
LAKE SUPERIOR

STATION/POSITION TIME  TEMP    WIND        PRES    WAVE
                       AIR SEA DIR/SP/G            HT/PER
                 (UTC) (F)     (DEG/KT/KT) (MB)    (FT/S)
DEVILS ISLAND    1400   40     230/ 10/ 12 1030.8S
SAXON HARBOR     1320   44     190/  4/  7 1029.5
$$

LMZ867-665-643>646-211500-
LAKE MICHIGAN

STATION/POSITION TIME  TEMP    WIND        PRES    WAVE
                       AIR SEA DIR/SP/G            HT/PER
                 (UTC) (F)     (DEG/KT/KT) (MB)    (FT/S)
NORTHPORT PIER   1340   39                 1030.5R
KEWAUNEE LAKESHO 1342   38     200/  2/  2 1030.3S
SHEBOYGAN LAKESH 1400   42     180/  3/  3 1032.0S
PORT WASHINGTON  1340   41      CALM  /  1 1032.5S
MILWAUKEE LAKESH 1350   39        CALM       N/A
KENOSHA   LAKESH 1400   38                 1031.5
$$

TC  - TEMPERATURE IN CELSIUS
VSB - VISIBILITY IN STATUTE MILES
WCI - WIND CHILL INDEX
HX  - HEAT INDEX




USA.gov is the U.S. government's official web portal to all federal, state and local government web resources and services.